User: anonymous   Login
Location: The D'Auria's Ocala Star Observatory
(29.0276°N, 82.1742°W)
Time: 23:12:00
(UTC-04:00)
Language:

Okean 3 Rocket - Orbit

View from above orbital plane
View from above orbital plane
View from above satellite
View from above satellite

Ground track
Ground track

The orbit data is extracted from the following two-line orbital elements,

1 21398U 91039B   16237.86776959  .00000096  00000-0  95573-5 0  9990
2 21398  82.5249 142.0243 0023026  74.9844 329.6285 14.79619996360094
Epoch (UTC): 24 August 2016 20:49:35
Eccentricity: 0.0023026
inclination: 82.5249°
perigee height: 614 km
apogee height: 646 km
right ascension of ascending node: 142.0243°
argument of perigee: 74.9844°
revolutions per day: 14.79619996
mean anomaly at epoch: 329.6285°
orbit number at epoch: 36009

The dashed part of the orbit path shows where the satellite is in the earth's shadow,  

DLR